OH2HCY Weather Reports


Display with metric or nautical units.
time (UTC)temp
F
wind
direction
speed
MPH
gust
MPH
rain 1hr
in
rain 24hr
in
rain mn
in
humidity
%
barometer
mb
20260901220220 58 252 2.0 6.0 0.00 0.00 0.00 93 1003.3
20260901215340 58 264 2.0 5.0 0.00 0.00 0.00 93 1003.3
20260901214455 58 256 2.0 6.0 0.00 0.00 0.00 93 1003.2
20260901213632 58 253 2.0 4.0 0.00 0.00 0.00 93 1003.2
20260901212739 58 245 2.0 4.0 0.00 0.00 0.00 93 1003.2
20260901211910 58 224 2.0 3.0 0.00 0.00 0.00 93 1003.2
20260901210956 58 228 1.0 3.0 0.00 0.00 0.00 93 1003.2
20260901210132 58 226 0.0 1.0 0.00 0.00 0.00 93 1003.2
20260901205220 58 196 1.0 2.0 0.00 0.00 0.00 93 1003.2
20260901204400 58 181 1.0 3.0 0.00 0.00 0.00 93 1003.3
20260901203435 58 190 1.0 3.0 0.00 0.00 0.00 92 1003.3
20260901202530 58 179 1.0 4.0 0.00 0.00 0.00 92 1003.3
20260901201652 58 188 1.0 4.0 0.00 0.00 0.00 92 1003.3
20260901200804 59 143 1.0 4.0 0.00 0.00 0.00 92 1003.2
20260901195915 59 152 1.0 3.0 0.00 0.00 0.00 92 1003.2
20260901195025 59 173 1.0 3.0 0.00 0.00 0.00 92 1003.0
20260901194100 59 201 1.0 3.0 0.00 0.00 0.00 92 1002.9
20260901193210 59 186 1.0 2.0 0.00 0.00 0.00 91 1002.9
20260901192310 59 183 1.0 2.0 0.00 0.00 0.00 91 1002.9
20260901191425 59 215 1.0 2.0 0.00 0.00 0.00 91 1002.9
20260901190500 60 177 1.0 3.0 0.00 0.00 0.00 91 1002.9
20260901185610 60 171 1.0 3.0 0.00 0.00 0.00 91 1002.9
20260901184702 60 192 1.0 3.0 0.00 0.00 0.00 90 1002.9
20260901183840 60 178 2.0 3.0 0.00 0.00 0.00 90 1002.8
20260901182945 60 159 1.0 3.0 0.00 0.00 0.00 89 1002.7
20260901182116 61 165 1.0 3.0 0.00 0.00 0.00 89 1002.7
20260901181215 61 165 1.0 3.0 0.00 0.00 0.00 88 1002.6
20260901180405 61 184 1.0 4.0 0.00 0.00 0.00 88 1002.5
20260901175530 62 172 1.0 3.0 0.00 0.00 0.00 87 1002.4
20260901174638 62 191 1.0 4.0 0.00 0.00 0.00 86 1002.4
20260901173755 62 180 2.0 6.0 0.00 0.00 0.00 86 1002.4
20260901172918 63 178 2.0 5.0 0.00 0.00 0.00 85 1002.4
20260901172010 63 183 2.0 6.0 0.00 0.00 0.00 84 1002.3
20260901171055 64 188 1.0 4.0 0.00 0.00 0.00 82 1002.1
20260901170210 64 192 1.0 3.0 0.00 0.00 0.00 82 1002.0
20260901165315 64 192 1.0 4.0 0.00 0.00 0.00 81 1001.9
20260901164405 64 197 1.0 3.0 0.00 0.00 0.00 81 1001.8
20260901163450 64 182 1.0 4.0 0.00 0.00 0.00 80 1001.8
20260901162550 64 199 2.0 5.0 0.00 0.00 0.00 80 1001.8
20260901161635 65 184 2.0 5.0 0.00 0.00 0.00 79 1001.9
20260901160725 65 184 3.0 5.0 0.00 0.00 0.00 78 1001.8
20260901155755 66 182 2.0 4.0 0.00 0.00 0.00 76 1001.6
20260901154910 66 205 3.0 6.0 0.00 0.00 0.00 73 1001.5
20260901154000 67 195 3.0 7.0 0.00 0.00 0.00 71 1001.4
20260901153115 67 216 3.0 8.0 0.00 0.00 0.00 70 1001.4
20260901152220 67 227 3.0 9.0 0.00 0.00 0.00 69 1001.4
20260901151332 67 262 3.0 7.0 0.00 0.00 0.00 69 1001.4
20260901150435 68 232 3.0 7.0 0.00 0.00 0.00 65 1001.1
20260901145520 69 234 2.0 7.0 0.00 0.00 0.00 65 1001.1
20260901144615 68 225 4.0 9.0 0.00 0.00 0.00 63 1001.2
20260901143709 68 210 2.0 8.0 0.00 0.00 0.00 68 1001.3
20260901142840 67 215 2.0 6.0 0.00 0.00 0.00 69 1001.5
20260901141915 67 219 4.0 9.0 0.00 0.00 0.00 69 1001.6
20260901140950 67 224 3.0 10.0 0.00 0.00 0.00 68 1001.6
20260901140040 67 223 4.0 11.0 0.00 0.00 0.00 70 1001.8
20260901135132 67 241 5.0 11.0 0.00 0.00 0.00 69 1001.8
20260901134244 68 247 6.0 17.0 0.00 0.00 0.00 66 1001.6
20260901133335 68 250 5.0 12.0 0.00 0.00 0.00 67 1001.5
20260901132435 67 225 5.0 10.0 0.00 0.00 0.00 68 1001.6
20260901131535 67 238 4.0 11.0 0.00 0.00 0.00 70 1001.7
20260901130645 66 254 6.0 12.0 0.00 0.00 0.00 70 1001.9
20260901125740 66 223 4.0 12.0 0.00 0.00 0.00 71 1001.9
20260901124850 66 220 6.0 11.0 0.00 0.00 0.00 72 1002.0
20260901123920 66 215 7.0 14.0 0.00 0.00 0.00 72 1002.1
20260901123045 66 226 7.0 14.0 0.00 0.00 0.00 72 1002.2
20260901122130 65 222 5.0 12.0 0.00 0.00 0.00 73 1002.6
20260901121245 65 222 6.0 14.0 0.00 0.00 0.00 73 1002.7
20260901120350 65 234 6.0 15.0 0.00 0.00 0.00 72 1002.6
20260901115515 65 220 7.0 11.0 0.00 0.00 0.00 72 1002.7
20260901114615 65 216 8.0 14.0 0.00 0.00 0.00 71 1002.7
20260901113658 65 220 5.0 13.0 0.00 0.00 0.00 71 1002.6
20260901112750 65 207 6.0 12.0 0.00 0.00 0.00 71 1002.6
20260901111825 65 210 5.0 12.0 0.00 0.00 0.00 74 1002.6
20260901110920 64 204 6.0 12.0 0.00 0.00 0.00 76 1002.7
20260901110030 65 200 3.0 8.0 0.00 0.00 0.00 76 1002.7
20260901105152 64 201 4.0 10.0 0.00 0.00 0.00 76 1002.8
20260901104250 64 210 5.0 11.0 0.00 0.00 0.00 74 1002.9
20260901103359 64 211 6.0 12.0 0.00 0.00 0.00 74 1002.8
20260901102514 64 207 5.0 13.0 0.00 0.00 0.00 72 1002.8
20260901101630 64 218 4.0 10.0 0.00 0.00 0.00 76 1002.8
20260901100720 64 206 5.0 11.0 0.00 0.00 0.00 78 1002.9
20260901095835 64 205 4.0 9.0 0.00 0.00 0.00 79 1002.8
20260901095020 64 208 5.0 11.0 0.00 0.00 0.00 79 1002.7
20260901094125 64 197 5.0 9.0 0.00 0.00 0.00 79 1002.6
20260901093230 64 202 6.0 13.0 0.00 0.00 0.00 79 1002.6
20260901092344 64 197 5.0 12.0 0.00 0.00 0.00 81 1002.6
20260901091455 63 197 4.0 9.0 0.00 0.00 0.00 84 1002.8
20260901090555 63 204 5.0 11.0 0.00 0.00 0.00 83 1002.7
20260901085645 64 202 4.0 9.0 0.00 0.00 0.00 78 1002.5
20260901084735 64 225 3.0 7.0 0.00 0.00 0.00 78 1002.4
20260901083852 64 228 4.0 8.0 0.00 0.00 0.00 78 1002.5
20260901082905 64 212 4.0 10.0 0.00 0.00 0.00 78 1002.5
20260901082025 64 206 4.0 8.0 0.00 0.00 0.00 78 1002.5
20260901081140 64 209 3.0 7.0 0.00 0.00 0.00 78 1002.5
20260901080220 63 213 4.0 11.0 0.00 0.00 0.00 79 1002.6
20260901075325 63 218 2.0 6.0 0.00 0.00 0.00 80 1002.6
20260901074445 63 215 3.0 8.0 0.00 0.00 0.00 79 1002.6
20260901073559 63 209 3.0 8.0 0.00 0.00 0.00 79 1002.5
20260901072746 63 206 3.0 7.0 0.00 0.00 0.00 80 1002.6
20260901071825 63 219 3.0 8.0 0.00 0.00 0.00 82 1002.7
20260901070905 62 214 4.0 9.0 0.00 0.00 0.00 82 1002.8
20260901065952 62 211 3.0 7.0 0.00 0.00 0.00 82 1002.8
20260901065030 62 203 3.0 8.0 0.00 0.00 0.00 84 1002.8
20260901064140 62 205 3.0 6.0 0.00 0.00 0.00 86 1002.9
20260901063215 61 208 4.0 7.0 0.00 0.00 0.00 86 1003.0
20260901062340 61 214 3.0 6.0 0.00 0.00 0.00 87 1003.0
20260901061425 61 224 2.0 5.0 0.00 0.00 0.00 88 1003.0
20260901060550 60 216 3.0 6.0 0.00 0.00 0.00 88 1003.1
20260901055635 60 218 3.0 6.0 0.00 0.00 0.00 89 1003.2
20260901054730 60 202 2.0 5.0 0.00 0.00 0.00 89 1003.2
20260901053820 60 213 2.0 5.0 0.00 0.00 0.00 90 1003.3
20260901052905 60 212 3.0 6.0 0.00 0.00 0.00 90 1003.4
20260901052009 60 208 3.0 7.0 0.00 0.00 0.00 91 1003.4
20260901051055 59 207 4.0 6.0 0.00 0.00 0.00 91 1003.5
20260901050210 59 207 4.0 8.0 0.00 0.00 0.00 91 1003.4
20260901045252 59 202 3.0 6.0 0.00 0.00 0.00 91 1003.4
20260901044429 59 185 2.0 6.0 0.00 0.00 0.00 91 1003.4
20260901043459 59 184 1.0 3.0 0.00 0.00 0.00 91 1003.4
20260901042616 59 180 1.0 4.0 0.00 0.00 0.00 91 1003.4
20260901041745 59 197 2.0 4.0 0.00 0.00 0.00 91 1003.5
20260901040840 59 200 2.0 4.0 0.00 0.00 0.00 91 1003.6
20260901035953 59 213 2.0 4.0 0.00 0.00 0.00 91 1003.6
20260901035115 59 217 2.0 5.0 0.00 0.00 0.00 91 1003.7
20260901034220 59 209 3.0 5.0 0.00 0.00 0.00 91 1003.7
20260901033245 59 209 2.0 4.0 0.00 0.00 0.00 91 1003.7
20260901032341 59 205 2.0 8.0 0.00 0.00 0.00 91 1003.6
20260901031515 59 206 3.0 5.0 0.00 0.00 0.00 91 1003.6
20260901030616 58 212 2.0 6.0 0.00 0.00 0.00 91 1003.7
20260901025745 58 217 2.0 6.0 0.00 0.00 0.00 92 1003.6
20260901024925 58 221 3.0 7.0 0.00 0.00 0.00 92 1003.7
20260901024015 58 228 3.0 7.0 0.00 0.00 0.00 92 1003.7
20260901023112 58 217 3.0 7.0 0.00 0.00 0.00 92 1003.6
20260901022205 58 218 3.0 7.0 0.00 0.00 0.00 92 1003.6
20260901021325 58 211 4.0 7.0 0.00 0.00 0.00 92 1003.7
20260901020400 58 211 4.0 8.0 0.00 0.00 0.00 92 1003.6
20260901015520 58 204 3.0 8.0 0.00 0.00 0.00 92 1003.6
20260901014615 58 203 3.0 6.0 0.00 0.00 0.00 92 1003.6
20260901013712 58 204 3.0 6.0 0.00 0.00 0.00 91 1003.5
20260901012740 58 210 3.0 6.0 0.00 0.00 0.00 91 1003.5
20260901011810 58 204 2.0 6.0 0.00 0.00 0.00 91 1003.5
20260901010850 58 192 2.0 5.0 0.00 0.00 0.00 91 1003.4
20260901005935 58 196 2.0 4.0 0.00 0.00 0.00 90 1003.5
20260901005020 58 211 2.0 5.0 0.00 0.00 0.00 90 1003.5
20260901004110 59 211 2.0 4.0 0.00 0.00 0.00 90 1003.5
20260901003129 59 221 2.0 4.0 0.00 0.00 0.00 90 1003.5
20260901002245 59 210 2.0 6.0 0.00 0.00 0.00 90 1003.6
20260901001340 59 209 4.0 6.0 0.00 0.00 0.00 89 1003.6
20260901000420 59 214 3.0 7.0 0.00 0.00 0.00 89 1003.6
20260831235525 59 217 3.0 8.0 0.00 0.00 0.00 89 1003.6
20260831234535 59 218 4.0 8.0 0.00 0.00 0.00 89 1003.4
20260831233605 59 215 5.0 9.0 0.00 0.00 0.00 88 1003.4
20260831232720 59 212 4.0 10.0 0.00 0.00 0.00 88 1003.4
20260831231844 60 210 4.0 9.0 0.00 0.00 0.00 88 1003.4
20260831230850 60 210 4.0 8.0 0.00 0.00 0.00 88 1003.4
20260831225949 60 213 5.0 9.0 0.00 0.00 0.00 88 1003.3
20260831225040 60 217 4.0 9.0 0.00 0.00 0.00 87 1003.3
20260831224212 60 214 4.0 8.0 0.00 0.00 0.00 88 1003.3
20260831223255 60 208 3.0 7.0 0.00 0.00 0.00 88 1003.3
20260831222400 60 212 4.0 8.0 0.00 0.00 0.00 88 1003.3
20260831221505 60 215 3.0 8.0 0.00 0.00 0.00 88 1003.3
20260831220535 60 217 3.0 7.0 0.00 0.00 0.00 88 1003.2